Weather History for Oakes, ND

Change the Weather History Date:

Saturday, January 11, 2014

  Actual Average (KABR) Record (KABR)
Temperature  
Mean Temperature 24 °F 12 °F  
Max Temperature 30 °F 22 °F 55 °F (1987)
Min Temperature 19 °F 1 °F -31 °F (1912)
Degree Days  
Heating Degree Days 40 53  
Month to date heating degree days 583  
Since 1 July heating degree days 4074  
Cooling Degree Days 0 0  
Month to date cooling degree days 0  
Year to date cooling degree days 0  
Moisture  
Dew Point 23 °F    
Average Humidity 90    
Maximum Humidity 100    
Minimum Humidity 80    
Precipitation  
Precipitation 0.00 in 0.01 in 0.40 in (1893)
Month to date precipitation 0.19  
Year to date precipitation 0.19  
Snow  
Snow 0.00 in - - ()
Month to date snowfall  
Since 1 July snowfall  
Snow Depth -    
Sea Level Pressure  
Sea Level Pressure 29.57 in    
Wind  
Wind Speed 14 mph (WSW)    
Max Wind Speed 22 mph    
Max Gust Speed 32 mph    
Visibility 10 miles    
Events      
T = Trace of Precipitation, MM = Missing Value Source: NWS Daily Summary

Daily Weather History Graph

Daily Weather History Graph

Search for Another Location

Airport:

Trip Planner

Search our weather history database for the weather conditions in past years. The results will help you decide how hot, cold, wet, or windy it might be!

Date:

Astronomy

Jan. 11, 2014 Rise Set
Actual Time 8:12 AM CST 5:08 PM CST
Civil Twilight 7:38 AM CST 5:42 PM CST
Nautical Twilight 7:01 AM CST 6:19 PM CST
Astronomical Twilight 6:25 AM CST 6:55 PM CST
Moon 1:55 PM CST (1/11) 4:15 AM CST (1/11)
Length of Visible Light 10h 03m
Length of Day
8h 55m
Waxing Gibbous, 83% of the Moon is Illuminated
Jan 11
Waxing Gibbous
Jan 15
Full
Jan 23
Last Quarter
Jan 30
New
Feb 6
First Quarter

Hourly Weather History & Observations

Time (CST) Temp. Windchill Dew Point Humidity Pressure Visibility Wind Dir Wind Speed Gust Speed Precip Events Conditions
12:15 AM 23.0 °F 12.4 °F 19.4 °F 86% 29.50 in 10.0 mi WNW 10.4 mph - N/A   Overcast
12:35 AM 24.8 °F 10.7 °F 21.2 °F 86% 29.50 in 10.0 mi NW 19.6 mph - N/A   Overcast
12:55 AM 24.8 °F 11.5 °F 24.8 °F 100% 29.51 in 10.0 mi NW 17.3 mph 21.9 mph N/A   Overcast
1:15 AM 26.6 °F 13.8 °F 24.8 °F 93% 29.51 in 10.0 mi NW 17.3 mph 24.2 mph N/A   Overcast
1:35 AM 26.6 °F 13.8 °F 24.8 °F 93% 29.51 in 10.0 mi NW 17.3 mph 25.3 mph N/A   Overcast
1:55 AM 26.6 °F 12.4 °F 24.8 °F 93% 29.52 in 9.0 mi NW 21.9 mph 32.2 mph N/A   Overcast
2:15 AM 26.6 °F 13.4 °F 24.8 °F 93% 29.53 in 10.0 mi NW 18.4 mph - N/A   Overcast
2:35 AM 26.6 °F 12.7 °F 24.8 °F 93% 29.54 in 10.0 mi NW 20.7 mph - N/A   Overcast
2:55 AM 26.6 °F 13.1 °F 24.8 °F 93% 29.55 in 10.0 mi NW 19.6 mph 26.5 mph N/A   Overcast
3:15 AM 26.6 °F 12.7 °F 24.8 °F 93% 29.56 in 10.0 mi NW 20.7 mph 29.9 mph N/A   Overcast
3:35 AM 26.6 °F 13.4 °F 24.8 °F 93% 29.57 in 10.0 mi NW 18.4 mph 25.3 mph N/A   Overcast
3:55 AM 26.6 °F 13.4 °F 24.8 °F 93% 29.57 in 10.0 mi NW 18.4 mph 27.6 mph N/A   Overcast
4:15 AM 24.8 °F 14.0 °F 24.8 °F 100% 29.58 in 10.0 mi WNW 11.5 mph - N/A   Mostly Cloudy
4:35 AM 24.8 °F 11.5 °F 24.8 °F 100% 29.59 in 10.0 mi NW 17.3 mph 24.2 mph N/A   Mostly Cloudy
4:55 AM 24.8 °F 12.4 °F 24.8 °F 100% 29.60 in 10.0 mi NW 15.0 mph - N/A   Overcast
5:15 AM 24.8 °F 12.9 °F 24.8 °F 100% 29.59 in 10.0 mi WNW 13.8 mph - N/A   Overcast
5:35 AM 26.6 °F 13.8 °F 26.6 °F 100% 29.60 in 10.0 mi WNW 17.3 mph - N/A   Overcast
5:55 AM 26.6 °F 13.1 °F 26.6 °F 100% 29.61 in 10.0 mi NW 19.6 mph 25.3 mph N/A   Overcast
6:15 AM 26.6 °F 14.3 °F 24.8 °F 93% 29.62 in 10.0 mi NW 16.1 mph 24.2 mph N/A   Mostly Cloudy
6:35 AM 24.8 °F 13.4 °F 24.8 °F 100% 29.62 in 10.0 mi NW 12.7 mph - N/A   Partly Cloudy
6:55 AM 23.0 °F 10.6 °F 23.0 °F 100% 29.63 in 10.0 mi WNW 13.8 mph - N/A   Clear
7:15 AM 23.0 °F 11.1 °F 23.0 °F 100% 29.64 in 10.0 mi WNW 12.7 mph - N/A   Clear
7:35 AM 19.4 °F 7.9 °F 19.4 °F 100% 29.63 in 10.0 mi WNW 10.4 mph - N/A   Clear
7:55 AM 19.4 °F 9.5 °F 19.4 °F 100% 29.64 in 10.0 mi WNW 8.1 mph - N/A   Clear
8:15 AM 19.4 °F 6.0 °F 19.4 °F 100% 29.63 in 10.0 mi WNW 13.8 mph - N/A   Clear
8:35 AM 19.4 °F 5.5 °F 19.4 °F 100% 29.64 in 10.0 mi WNW 15.0 mph - N/A   Clear
8:55 AM 19.4 °F 6.0 °F 19.4 °F 100% 29.65 in 10.0 mi West 13.8 mph - N/A   Clear
9:15 AM 21.2 °F 10.9 °F 21.2 °F 100% 29.65 in 10.0 mi West 9.2 mph - N/A   Clear
9:35 AM 21.2 °F 11.7 °F 21.2 °F 100% 29.66 in 10.0 mi West 8.1 mph - N/A   Clear
9:55 AM 23.0 °F 11.7 °F 21.2 °F 93% 29.67 in 10.0 mi West 11.5 mph - N/A   Clear
10:15 AM 24.8 °F 14.6 °F 23.0 °F 93% 29.68 in 10.0 mi West 10.4 mph - N/A   Clear
10:35 AM 24.8 °F 17.9 °F 21.2 °F 86% 29.68 in 10.0 mi WSW 5.8 mph - N/A   Clear
10:55 AM 26.6 °F 16.2 °F 23.0 °F 86% 29.69 in 10.0 mi West 11.5 mph - N/A   Clear
11:15 AM 26.6 °F 15.2 °F 23.0 °F 86% 29.68 in 10.0 mi West 13.8 mph - N/A   Clear
11:35 AM 26.6 °F 14.3 °F 23.0 °F 86% 29.68 in 10.0 mi West 16.1 mph - N/A   Clear
11:55 AM 28.4 °F 18.0 °F 23.0 °F 80% 29.67 in 10.0 mi West 12.7 mph - N/A   Clear
12:15 PM 28.4 °F 19.7 °F 23.0 °F 80% 29.65 in 10.0 mi West 9.2 mph - N/A   Clear
12:35 PM 28.4 °F 19.7 °F 23.0 °F 80% 29.64 in 10.0 mi West 9.2 mph - N/A   Clear
12:55 PM 28.4 °F 19.7 °F 23.0 °F 80% 29.64 in 10.0 mi WSW 9.2 mph - N/A   Clear
1:15 PM 28.4 °F 18.5 °F 23.0 °F 80% 29.63 in 10.0 mi West 11.5 mph - N/A   Clear
1:35 PM 28.4 °F 18.5 °F 23.0 °F 80% 29.62 in 10.0 mi West 11.5 mph - N/A   Clear
1:55 PM 28.4 °F 19.7 °F 23.0 °F 80% 29.62 in 10.0 mi WSW 9.2 mph - N/A   Clear
2:15 PM 28.4 °F 20.4 °F 23.0 °F 80% 29.61 in 10.0 mi West 8.1 mph - N/A   Clear
2:35 PM 30.2 °F 22.6 °F 24.8 °F 80% 29.61 in 10.0 mi SW 8.1 mph - N/A   Clear
2:55 PM 30.2 °F 22.6 °F 24.8 °F 80% 29.61 in 10.0 mi SW 8.1 mph - N/A   Clear
3:15 PM 30.2 °F 23.4 °F 24.8 °F 80% 29.60 in 10.0 mi SW 6.9 mph - N/A   Clear
3:35 PM 30.2 °F 24.3 °F 24.8 °F 80% 29.60 in 10.0 mi WSW 5.8 mph - N/A   Clear
3:55 PM 28.4 °F 21.2 °F 24.8 °F 86% 29.60 in 10.0 mi South 6.9 mph - N/A   Clear
4:15 PM 28.4 °F 19.1 °F 23.0 °F 80% 29.61 in 10.0 mi SSW 10.4 mph - N/A   Clear
4:35 PM 26.6 °F 16.2 °F 23.0 °F 86% 29.60 in 10.0 mi SSW 11.5 mph - N/A   Partly Cloudy
4:55 PM 24.8 °F 12.9 °F 23.0 °F 93% 29.61 in 10.0 mi SSW 13.8 mph - N/A   Partly Cloudy
5:15 PM 24.8 °F 13.4 °F 21.2 °F 86% 29.61 in 10.0 mi South 12.7 mph - N/A   Clear
5:35 PM 24.8 °F 14.0 °F 19.4 °F 80% 29.60 in 10.0 mi SSW 11.5 mph - N/A   Clear
5:55 PM 23.0 °F 12.4 °F 19.4 °F 86% 29.58 in 10.0 mi South 10.4 mph - N/A   Clear
6:15 PM 23.0 °F 11.7 °F 19.4 °F 86% 29.57 in 10.0 mi South 11.5 mph - N/A   Scattered Clouds
6:35 PM 24.8 °F 14.0 °F 19.4 °F 80% 29.55 in 10.0 mi South 11.5 mph - N/A   Mostly Cloudy
6:55 PM 23.0 °F 11.7 °F 19.4 °F 86% 29.55 in 10.0 mi SSE 11.5 mph - N/A   Scattered Clouds
7:15 PM 23.0 °F 13.1 °F 19.4 °F 86% 29.53 in 10.0 mi SSE 9.2 mph - N/A   Mostly Cloudy
7:35 PM 23.0 °F 11.1 °F 19.4 °F 86% 29.52 in 10.0 mi SSE 12.7 mph - N/A   Mostly Cloudy
7:55 PM 23.0 °F 12.4 °F 21.2 °F 93% 29.51 in 10.0 mi SSE 10.4 mph - N/A   Overcast
8:15 PM 23.0 °F 10.1 °F 23.0 °F 100% 29.50 in 10.0 mi South 15.0 mph - N/A   Overcast
8:35 PM 24.8 °F 12.9 °F 23.0 °F 93% 29.50 in 10.0 mi South 13.8 mph 20.7 mph N/A   Overcast
8:55 PM 24.8 °F 14.0 °F 23.0 °F 93% 29.47 in 10.0 mi SSE 11.5 mph - N/A   Overcast
9:15 PM 24.8 °F 14.0 °F 23.0 °F 93% 29.46 in 10.0 mi SSE 11.5 mph - N/A   Overcast
9:35 PM 26.6 °F 16.2 °F 24.8 °F 93% 29.45 in 10.0 mi SSE 11.5 mph - N/A   Overcast
9:55 PM 26.6 °F 15.2 °F 24.8 °F 93% 29.44 in 10.0 mi South 13.8 mph - N/A   Overcast
10:15 PM 28.4 °F 18.0 °F 24.8 °F 86% 29.42 in 10.0 mi SSE 12.7 mph - N/A   Overcast
10:35 PM 28.4 °F 18.0 °F 24.8 °F 86% 29.40 in 10.0 mi SSE 12.7 mph - N/A   Mostly Cloudy
10:55 PM 28.4 °F 17.5 °F 24.8 °F 86% 29.39 in 10.0 mi South 13.8 mph - N/A   Mostly Cloudy
11:15 PM 28.4 °F 18.0 °F 26.6 °F 93% 29.36 in 10.0 mi SSE 12.7 mph - N/A   Scattered Clouds
11:35 PM 28.4 °F 19.1 °F 26.6 °F 93% 29.35 in 10.0 mi SSE 10.4 mph - N/A   Partly Cloudy
11:55 PM 30.2 °F 20.8 °F 26.6 °F 86% 29.34 in 10.0 mi South 11.5 mph - N/A   Mostly Cloudy